User: anonymous
Location: Fort Wayne
(41.1310°N, 85.1290°W)
Time: 14:57:26
(UTC-04:00)
Language:

Cosmos 2227 Rocket - Orbit

View from above orbital plane
View from above orbital plane
View from above satellite
View from above satellite

Ground track
Ground track

The orbit data is extracted from the following two-line orbital elements,

1 22285U 92093B   14237.69461966 -.00000152  00000-0 -54148-4 0  3794
2 22285 071.0211 205.5158 0006377 260.5689 099.4713 14.14916493117338
Epoch (UTC): 25 August 2014 16:40:15
Eccentricity: 0.0006377
inclination: 71.0211°
perigee height: 838 km
apogee height: 847 km
right ascension of ascending node: 205.5158°
argument of perigee: 260.5689°
revolutions per day: 14.14916493
mean anomaly at epoch: 99.4713°
orbit number at epoch: 11733

The dashed part of the orbit path shows where the satellite is in the earth's shadow,  

DLR